Change the Weather History Date:

Saturday, April 19, 2014

  Actual Average (KMGW) Record (KMGW)
Temperature  
Mean Temperature 50 °F 54 °F  
Max Temperature 59 °F 65 °F 88 °F (2002)
Min Temperature 42 °F 43 °F 23 °F (1983)
Degree Days  
Heating Degree Days 14 11  
Month to date heating degree days 272  
Since 1 July heating degree days 4873  
Cooling Degree Days 0 1  
Month to date cooling degree days 1  
Year to date cooling degree days 3  
Moisture  
Dew Point 17 °F    
Average Humidity 32    
Maximum Humidity 66    
Minimum Humidity 8    
Precipitation  
Precipitation 0.00 in 0.12 in 1.06 in (2011)
Month to date precipitation 2.22  
Year to date precipitation 11.28  
Sea Level Pressure  
Sea Level Pressure 30.26 in    
Wind  
Wind Speed 4 mph (NE)    
Max Wind Speed 10 mph    
Max Gust Speed 16 mph    
Visibility 10 miles    
Events      
T = Trace of Precipitation, MM = Missing Value Source: NWS Daily Summary

Daily Weather History Graph

Daily Weather History Graph

Search for Another Location

Airport or City:

Trip Planner

Search our weather history database for the weather conditions in past years. The results will help you decide how hot, cold, wet, or windy it might be!

Date:

Astronomy

Apr. 19, 2014 Rise Set
Actual Time 6:34 AM EDT 7:59 PM EDT
Civil Twilight 6:06 AM EDT 8:27 PM EDT
Nautical Twilight 5:32 AM EDT 9:01 PM EDT
Astronomical Twilight 4:56 AM EDT 9:37 PM EDT
Moon No Moon Rise 9:51 AM EDT (4/19)
Length of Visible Light 14h 21m
Length of Day
13h 25m
Waning Gibbous, 79% of the Moon is Illuminated
Apr 19
Waning Gibbous
Apr 22
Last Quarter
Apr 29
New
May 6
First Quarter
May 14
Full

Hourly Weather History & Observations

Time (EDT) Temp. Windchill Dew Point Humidity Pressure Visibility Wind Dir Wind Speed Gust Speed Precip Events Conditions
12:00 AM 50.0 °F - 24.8 °F 37% 30.23 in 10.0 mi SSW 3.5 mph - N/A   Clear
12:20 AM 48.2 °F - 26.6 °F 43% 30.23 in 10.0 mi Calm Calm - N/A   Clear
12:40 AM 48.2 °F - 26.6 °F 43% 30.24 in 10.0 mi SSW 3.5 mph - N/A   Clear
1:00 AM 46.4 °F 45.2 °F 28.4 °F 50% 30.24 in 10.0 mi SSW 3.5 mph - N/A   Clear
1:20 AM 48.2 °F - 24.8 °F 40% 30.24 in 10.0 mi Calm Calm - N/A   Clear
1:40 AM 50.0 °F - 21.2 °F 32% 30.23 in 10.0 mi Calm Calm - N/A   Clear
2:00 AM 50.0 °F - 21.2 °F 32% 30.23 in 10.0 mi Calm Calm - N/A   Clear
2:20 AM 50.0 °F - 21.2 °F 32% 30.22 in 10.0 mi NNW 3.5 mph - N/A   Clear
2:40 AM 48.2 °F - 23.0 °F 37% 30.22 in 10.0 mi Calm Calm - N/A   Clear
3:00 AM 50.0 °F - 23.0 °F 35% 30.22 in 10.0 mi North 3.5 mph - N/A   Clear
3:20 AM 48.2 °F - 23.0 °F 37% 30.22 in 10.0 mi North 3.5 mph - N/A   Clear
3:40 AM 46.4 °F 44.3 °F 26.6 °F 46% 30.23 in 10.0 mi North 4.6 mph - N/A   Clear
4:00 AM 46.4 °F 45.2 °F 26.6 °F 46% 30.23 in 10.0 mi North 3.5 mph - N/A   Clear
4:20 AM 44.6 °F 43.1 °F 26.6 °F 49% 30.23 in 10.0 mi North 3.5 mph - N/A   Clear
4:40 AM 44.6 °F 43.1 °F 26.6 °F 49% 30.23 in 10.0 mi NE 3.5 mph - N/A   Clear
5:00 AM 44.6 °F - 28.4 °F 53% 30.23 in 10.0 mi Calm Calm - N/A   Clear
5:20 AM 44.6 °F - 28.4 °F 53% 30.23 in 10.0 mi Calm Calm - N/A   Clear
5:40 AM 44.6 °F - 30.2 °F 57% 30.23 in 10.0 mi Calm Calm - N/A   Clear
6:00 AM 44.6 °F 43.1 °F 30.2 °F 57% 30.24 in 10.0 mi NNE 3.5 mph - N/A   Clear
6:20 AM 42.8 °F - 30.2 °F 61% 30.25 in 10.0 mi Calm Calm - N/A   Clear
6:40 AM 42.8 °F 41.1 °F 32.0 °F 66% 30.26 in 10.0 mi NNE 3.5 mph - N/A   Clear
7:00 AM 42.8 °F 41.1 °F 32.0 °F 66% 30.27 in 10.0 mi NNE 3.5 mph - N/A   Clear
7:20 AM 42.8 °F 40.1 °F 32.0 °F 66% 30.28 in 10.0 mi NNE 4.6 mph - N/A   Clear
7:40 AM 42.8 °F - 32.0 °F 66% 30.28 in 10.0 mi Calm Calm - N/A   Clear
8:00 AM 44.6 °F 42.2 °F 30.2 °F 57% 30.28 in 10.0 mi ENE 4.6 mph - N/A   Clear
8:20 AM 44.6 °F 42.2 °F 30.2 °F 57% 30.29 in 10.0 mi ENE 4.6 mph - N/A   Clear
8:40 AM 46.4 °F 43.5 °F 30.2 °F 53% 30.29 in 10.0 mi NE 5.8 mph - N/A   Clear
9:00 AM 46.4 °F 45.2 °F 28.4 °F 50% 30.29 in 10.0 mi NE 3.5 mph - N/A   Clear
9:20 AM 50.0 °F - 28.4 °F 43% 30.30 in 10.0 mi East 4.6 mph - N/A   Clear
10:00 AM 50.0 °F - 26.6 °F 40% 30.31 in 10.0 mi ENE 3.5 mph - N/A   Clear
10:20 AM 51.8 °F - 24.8 °F 35% 30.31 in 10.0 mi NNE 5.8 mph - N/A   Clear
10:40 AM 51.8 °F - 26.6 °F 38% 30.31 in 10.0 mi NE 4.6 mph - N/A   Clear
11:00 AM 53.6 °F - 26.6 °F 35% 30.31 in 10.0 mi NE 6.9 mph - N/A   Clear
11:20 AM 53.6 °F - 26.6 °F 35% 30.30 in 10.0 mi NNE 5.8 mph - N/A   Clear
11:40 AM 53.6 °F - 26.6 °F 35% 30.29 in 10.0 mi NNW 8.1 mph - N/A   Clear
12:00 PM 53.6 °F - 24.8 °F 33% 30.29 in 10.0 mi NNE 10.4 mph 16.1 mph N/A   Clear
12:20 PM 53.6 °F - 23.0 °F 30% 30.30 in 10.0 mi North 9.2 mph - N/A   Clear
12:40 PM 53.6 °F - 21.2 °F 28% 30.29 in 10.0 mi North 5.8 mph - N/A   Clear
1:00 PM 53.6 °F - 21.2 °F 28% 30.29 in 10.0 mi NE 8.1 mph - N/A   Clear
1:20 PM 55.4 °F - 17.6 °F 23% 30.28 in 10.0 mi North 4.6 mph - N/A   Clear
1:40 PM 55.4 °F - 19.4 °F 25% 30.27 in 10.0 mi North 5.8 mph - N/A   Clear
2:00 PM 55.4 °F - 17.6 °F 23% 30.26 in 10.0 mi NE 3.5 mph - N/A   Clear
2:20 PM 57.2 °F - 14.0 °F 18% 30.26 in 10.0 mi ENE 5.8 mph - N/A   Clear
2:40 PM 55.4 °F - 12.2 °F 18% 30.26 in 10.0 mi ENE 5.8 mph - N/A   Clear
3:00 PM 57.2 °F - 12.2 °F 17% 30.26 in 10.0 mi NE 4.6 mph - N/A   Clear
3:20 PM 57.2 °F - 10.4 °F 16% 30.26 in 10.0 mi Calm Calm - N/A   Clear
3:40 PM 57.2 °F - 8.6 °F 14% 30.25 in 10.0 mi North 4.6 mph - N/A   Clear
4:00 PM 59.0 °F - 3.2 °F 11% 30.26 in 10.0 mi NNW 3.5 mph - N/A   Clear
4:20 PM 57.2 °F - 6.8 °F 13% 30.25 in 10.0 mi NNE 6.9 mph - N/A   Clear
4:40 PM 57.2 °F - 3.2 °F 11% 30.25 in 10.0 mi NNW 3.5 mph - N/A   Clear
5:00 PM 57.2 °F - 1.4 °F 10% 30.25 in 10.0 mi NNW 4.6 mph - N/A   Clear
5:20 PM 57.2 °F - 1.4 °F 10% 30.25 in 10.0 mi North 5.8 mph - N/A   Clear
5:40 PM 57.2 °F - 5.0 °F 12% 30.25 in 10.0 mi ENE 4.6 mph - N/A   Clear
6:00 PM 55.4 °F - -5.8 °F 8% 30.26 in 10.0 mi NE 4.6 mph - N/A   Clear
6:20 PM 55.4 °F - -2.2 °F 9% 30.26 in 10.0 mi ENE 3.5 mph - N/A   Clear
6:40 PM 55.4 °F - 1.4 °F 11% 30.26 in 10.0 mi East 3.5 mph - N/A   Clear
7:00 PM 53.6 °F - 3.2 °F 13% 30.27 in 10.0 mi NNE 3.5 mph - N/A   Clear
7:20 PM 53.6 °F - 3.2 °F 13% 30.27 in 10.0 mi NE 3.5 mph - N/A   Clear
7:40 PM 51.8 °F - 3.2 °F 14% 30.27 in 10.0 mi NE 3.5 mph - N/A   Clear
8:00 PM 51.8 °F - 1.4 °F 13% 30.27 in 10.0 mi ENE 4.6 mph - N/A   Clear
8:20 PM 51.8 °F - 1.4 °F 13% 30.27 in 10.0 mi ENE 4.6 mph - N/A   Clear
8:40 PM 50.0 °F - 1.4 °F 14% 30.28 in 10.0 mi East 5.8 mph - N/A   Clear
9:00 PM 50.0 °F - 3.2 °F 15% 30.28 in 10.0 mi East 5.8 mph - N/A   Clear
9:20 PM 50.0 °F - 1.4 °F 14% 30.29 in 10.0 mi East 6.9 mph - N/A   Clear
9:40 PM 50.0 °F - 1.4 °F 14% 30.29 in 10.0 mi East 8.1 mph - N/A   Clear
10:00 PM 48.2 °F - 3.2 °F 16% 30.30 in 10.0 mi East 8.1 mph - N/A   Clear
10:20 PM 46.4 °F 42.4 °F 3.2 °F 17% 30.30 in 10.0 mi East 8.1 mph - N/A   Clear
10:40 PM 48.2 °F - 3.2 °F 16% 30.29 in 10.0 mi East 10.4 mph - N/A   Clear
11:00 PM 46.4 °F 41.9 °F 5.0 °F 18% 30.30 in 10.0 mi East 9.2 mph - N/A   Clear
11:40 PM 46.4 °F 41.9 °F 8.6 °F 22% 30.30 in 10.0 mi East 9.2 mph - N/A   Clear